Regional Weather Roundup
Issued by NWS

Home | Current Version | Previous Version | Text Only | Print | Product List | Glossary On
Versions: 1 2 3 4 5 6 7 8 9 10 11 12 13 14 15 16 17 18 19 20 21 22 23 24 25 26 27 28 29 30 31 32 33 34 35 36 37 38 39 40 41 42 43 44 45 46 47 48 49 50
000
ASUS44 KOUN 220710
RWROK

WEATHER ROUNDUP FOR OKLAHOMA
NATIONAL WEATHER SERVICE NORMAN OK
100 AM CST MON DEC 22 2014

NOTE: "FAIR" INDICATES FEW OR NO CLOUDS BELOW 12,000 FEET WITH NO
      SIGNIFICANT WEATHER AND/OR OBSTRUCTIONS TO VISIBILITY.

OKZ001>007-009>012-014-015-017-220800-
NORTHWEST OKLAHOMA AND THE PANHANDLE

CITY           SKY/WX    TMP DP  RH WIND       PRES   REMARKS
GAGE           CLOUDY    45  43  93 SW13      29.54F
ENID/WOODRING  MOCLDY    46  45  93 SE9       29.59F FOG
$$

OKZ016-021>023-033>039-044-045-220800-
SOUTHWEST OKLAHOMA

CITY           SKY/WX    TMP DP  RH WIND       PRES   REMARKS
LAWTON/REGL    CLOUDY    46  44  93 SE9       29.57F
LAWTON/FT SILL CLOUDY    48  47  99 SE13      29.56F
FREDERICK      PTCLDY    44  42  93 SE5       29.52F FOG
CLINTON        PTCLDY    44  42  93 S10       29.56F FOG
HOBART         PTCLDY    46  43  89 S13       29.54F
ALTUS AFB      PTCLDY    43  43 100 SE8       29.53F
$$

OKZ018>020-024>031-220800-
CENTRAL OKLAHOMA

CITY           SKY/WX    TMP DP  RH WIND       PRES   REMARKS
OKLAHOMA CITY  CLOUDY    48  45  89 S13       29.60F
OKC/WILEY POST CLOUDY    49  45  86 S15       29.60F
OKC/TINKER AFB CLOUDY    48  45  89 S14       29.60F
STILLWATER     CLOUDY    47  44  90 SE13      29.62F
GUTHRIE        CLOUDY    48  45  89 S9        29.61F
$$

OKZ008-013-054>072-220800-
NORTHEAST OKLAHOMA

CITY           SKY/WX    TMP DP  RH WIND       PRES   REMARKS
TULSA          CLOUDY    47  44  90 SE12      29.69F
TULSA/JONES    CLOUDY    47  44  90 S8        29.68F
PONCA CITY     CLOUDY    46  44  93 SE14      29.63F FOG
BARTLESVILLE   CLOUDY    45  44  97 S10       29.69F
MUSKOGEE       CLOUDY    46  43  89 SE13      29.72F
$$

OKZ032-040>043-046>053-073>077-220800-
SOUTH CENTRAL/SOUTHEAST OKLAHOMA

CITY           SKY/WX    TMP DP  RH WIND       PRES   REMARKS
ARDMORE/DWNTWN CLOUDY    50  46  87 S10       29.63F
MCALESTER      CLOUDY    49  44  83 SE9G17    29.70F
$$




USA.gov is the U.S. government's official web portal to all federal, state and local government web resources and services.